Weather History for Orlando, FL

Change the Weather History Date:

Saturday, August 24, 2013

  Actual Average Record
Temperature  
Mean Temperature 82 °F -  
Max Temperature 90 °F 88 °F 98 °F (2014)
Min Temperature 75 °F 72 °F 71 °F (1996)
Cooling Degree Days 17    
Growing Degree Days 32 (Base 50)    
Moisture  
Dew Point 74 °F    
Average Humidity 88    
Maximum Humidity 97    
Minimum Humidity 55    
Precipitation  
Precipitation 0.30 in - - ()
Sea Level Pressure  
Sea Level Pressure 30.09 in    
Wind  
Wind Speed 2 mph (ENE)    
Max Wind Speed 15 mph    
Max Gust Speed 24 mph    
Visibility 10 miles    
Events Rain    
Averages and records for this station are not official NWS values.
T = Trace of Precipitation, MM = Missing Value Source: NWS Daily Summary

Daily Weather History Graph

Daily Weather History Graph

Search for Another Location

Airport:

Trip Planner

Search our weather history database for the weather conditions in past years. The results will help you decide how hot, cold, wet, or windy it might be!

Date:

Astronomy

Aug. 24, 2013 Rise Set
Actual Time 6:59 AM EDT 7:55 PM EDT
Civil Twilight 6:35 AM EDT 8:19 PM EDT
Nautical Twilight 6:06 AM EDT 8:48 PM EDT
Astronomical Twilight 5:37 AM EDT 9:17 PM EDT
Moon 10:15 PM EDT (8/24) 10:33 AM EDT (8/24)
Length of Visible Light 13h 44m
Length of Day
12h 55m
Waning Gibbous, 84% of the Moon is Illuminated
Aug 24
Waning Gibbous
Aug 28
Last Quarter
Sep 5
New
Sep 12
First Quarter
Sep 19
Full

Hourly Weather History & Observations

Time (EDT) Temp. Heat Index Dew Point Humidity Pressure Visibility Wind Dir Wind Speed Gust Speed Precip Events Conditions
12:53 AM 78.1 °F - 75.0 °F 90% 30.05 in 10.0 mi Calm Calm - N/A   Clear
1:53 AM 78.1 °F - 75.0 °F 90% 30.04 in 10.0 mi Calm Calm - N/A   Clear
2:53 AM 77.0 °F - 75.0 °F 94% 30.04 in 10.0 mi Calm Calm - N/A   Clear
3:53 AM 75.9 °F - 75.0 °F 97% 30.04 in 10.0 mi Calm Calm - N/A   Clear
4:53 AM 77.0 °F - 75.0 °F 94% 30.04 in 10.0 mi Calm Calm - N/A   Clear
5:53 AM 75.9 °F - 73.9 °F 94% 30.05 in 10.0 mi Calm Calm - N/A   Clear
6:53 AM 75.9 °F - 75.0 °F 97% 30.05 in 10.0 mi Calm Calm - N/A   Clear
7:53 AM 77.0 °F - 75.9 °F 96% 30.08 in 10.0 mi Calm Calm - N/A   Clear
8:53 AM 81.0 °F 87.9 °F 77.0 °F 88% 30.09 in 10.0 mi Calm Calm - N/A   Clear
9:53 AM 82.0 °F 88.6 °F 75.0 °F 79% 30.11 in 10.0 mi Calm Calm - N/A   Clear
10:53 AM 84.9 °F 92.1 °F 73.9 °F 69% 30.12 in 10.0 mi Calm Calm - N/A   Clear
11:53 AM 86.0 °F 93.0 °F 73.0 °F 65% 30.12 in 10.0 mi Calm Calm - N/A   Scattered Clouds
12:53 PM 88.0 °F 95.6 °F 73.0 °F 61% 30.10 in 10.0 mi Calm Calm - N/A   Scattered Clouds
1:53 PM 89.1 °F 95.0 °F 71.1 °F 55% 30.08 in 10.0 mi Variable 3.5 mph - N/A   Overcast
2:53 PM 82.9 °F 89.4 °F 73.9 °F 74% 30.07 in 10.0 mi NNE 15.0 mph 24.2 mph 0.01 in Rain Light Rain
3:53 PM 75.9 °F - 73.9 °F 94% 30.12 in 9.0 mi ESE 4.6 mph - 0.01 in Rain Light Rain
4:53 PM 75.9 °F - 75.0 °F 97% 30.12 in 3.0 mi East 5.8 mph - 0.21 in Rain Light Rain
5:53 PM 75.9 °F - 73.9 °F 94% 30.11 in 10.0 mi East 6.9 mph - 0.03 in Rain Light Rain
6:05 PM 75.2 °F - 73.4 °F 94% 30.09 in 10.0 mi East 9.2 mph - 0.01 in Rain Light Rain
6:35 PM 75.2 °F - 73.4 °F 94% 30.10 in 10.0 mi ENE 6.9 mph - 0.01 in   Mostly Cloudy
6:46 PM 75.2 °F - 73.4 °F 94% 30.10 in 10.0 mi NE 5.8 mph - 0.02 in Rain Light Rain
6:53 PM 75.9 °F - 73.9 °F 94% 30.10 in 10.0 mi NE 4.6 mph - 0.02 in Rain Light Rain
7:53 PM 75.0 °F - 73.0 °F 94% 30.09 in 10.0 mi ESE 3.5 mph - 0.01 in Rain Light Rain
8:53 PM 75.0 °F - 72.0 °F 90% 30.10 in 10.0 mi ENE 5.8 mph - 0.01 in   Scattered Clouds
9:53 PM 75.0 °F - 73.0 °F 94% 30.13 in 10.0 mi SSE 3.5 mph - 0.00 in Rain Light Rain
10:53 PM 75.9 °F - 73.9 °F 94% 30.14 in 10.0 mi NNE 3.5 mph - 0.00 in   Partly Cloudy
11:53 PM 75.0 °F - 73.9 °F 96% 30.14 in 10.0 mi Calm Calm - N/A   Clear